Location: *
(34.6780°N, 135.8310°E)
Time: 08:53:33
(UTC+00:00)

Fregat R/B Cluster 11 - Pass Details

Date: 18 October 2019
Orbit: 329 x 17519 km, 64.8° (Epoch: 11 November)

Event Time Altitude Azimuth Distance (km) Brightness Sun altitude
Exits shadow 19:32:41 39° 323° (NW) 807 4.3 -19.7°
Drops below altitude 10° 19:37:40 10° 22° (NNE) 2,997 7.8 -18.7°
Sets 19:42:43 0° 29° (NNE) 5,398 9.3 -17.6°
